This is the latest recevied weather packets stored in our database for station/object NK2J. If no packets are shown the sender has not sent any weather packets the latest 10 day(s).
| Time | Temp. | Humidity | Pressure | Rain* | Wind** | Luminosity | Snow |
|---|---|---|---|---|---|---|---|
| 1777499459 | 30° C | 15% | 1014.3 hPa | 0 mm | - | 507 W/m² | - |
| 1777499158 | 30° C | 14% | 1014.3 hPa | 0 mm | - | 510 W/m² | - |
| 1777498854 | 30° C | 14% | 1014.4 hPa | 0 mm | - | 604 W/m² | - |
| 1777498550 | 29.44° C | 14% | 1014.3 hPa | 0 mm | - | 610 W/m² | - |
| 1777498246 | 29.44° C | 15% | 1014.5 hPa | 0 mm | - | 635 W/m² | - |
| 1777497945 | 30° C | 14% | 1014.4 hPa | 0 mm | - | 644 W/m² | - |
| 1777497641 | 29.44° C | 16% | 1014.4 hPa | 0 mm | - | 599 W/m² | - |
| 1777497338 | 29.44° C | 18% | 1014.3 hPa | 0 mm | - | 515 W/m² | - |
| 1777497033 | 30° C | 16% | 1014.3 hPa | 0 mm | - | 423 W/m² | - |
| 1777496731 | 28.89° C | 16% | 1014.7 hPa | 0 mm | - | 552 W/m² | - |
| 1777496427 | 29.44° C | 15% | 1014.8 hPa | 0 mm | - | 460 W/m² | - |
| 1777496124 | 30° C | 16% | 1014.7 hPa | 0 mm | - | 702 W/m² | - |
| 1777495820 | 29.44° C | 15% | 1014.6 hPa | 0 mm | - | 710 W/m² | - |
| 1777495516 | 28.89° C | 15% | 1014.8 hPa | 0 mm | - | 591 W/m² | - |
| 1777495212 | 28.89° C | 15% | 1014.9 hPa | 0 mm | - | 674 W/m² | - |
| 1777494909 | 28.89° C | 15% | 1014.9 hPa | 0 mm | - | 640 W/m² | - |
| 1777494607 | 29.44° C | 14% | 1014.9 hPa | 0 mm | - | 723 W/m² | - |
| 1777494304 | 28.89° C | 15% | 1015 hPa | 0 mm | - | 738 W/m² | - |
| 1777493999 | 28.89° C | 14% | 1015 hPa | 0 mm | - | 744 W/m² | - |
| 1777493698 | 28.89° C | 14% | 1014.9 hPa | 0 mm | - | 745 W/m² | - |
| 1777493395 | 29.44° C | 17% | 1015.3 hPa | 0 mm | - | 749 W/m² | - |
| 1777493091 | 28.89° C | 15% | 1015.3 hPa | 0 mm | - | 753 W/m² | - |
| 1777492788 | 28.89° C | 15% | 1015.3 hPa | 0 mm | - | 757 W/m² | - |
| 1777492484 | 28.89° C | 15% | 1015.5 hPa | 0 mm | - | 756 W/m² | - |
| 1777492181 | 28.33° C | 15% | 1015.4 hPa | 0 mm | - | 758 W/m² | - |
* Rain latest hour (hover to see other rain measurements)
** Current wind speed in m/s (hover to see current wind gust speed)